CAPE
0 0 0 0 0 8 0 0 0 0 60 37 6 23 51 12 320 1281 1018 518 363 3 0 0 0 0 0 0 0 0 0 0 0 0 0 0 0 0 0 0 0 0 0 0
0 0 0 0 0 0 5 9 0 0 37 3 23 57 57 97 552 694 1178 236 22 0 0 0 0 0 0 0 0 0 0 0 0 0 0 0 0 0 0 0 0 0 0 0
0 0 0 0 2 10 19 30 5 12 34 96 125 168 275 456 784 903 929 287 35 0 0 0 0 0 0 0 0 0 0 0 0 0 0 0 0 0 0 0 0 1 2 4
0 0 0 12 93 114 118 106 57 76 30 162 283 279 366 373 955 1173 829 293 6 35 7 0 0 0 0 0 0 0 0 0 0 0 0 0 0 0 0 0 0 0 1 10
0 0 0 109 18 4 19 127 36 134 48 146 350 309 434 274 1036 1243 686 83 184 18 20 63 9 0 0 0 0 0 0 0 0 0 0 0 0 0 0 0 0 0 0 0
141 0 2 120 48 14 5 225 24 28 58 52 98 334 386 712 913 1140 387 115 176 105 170 195 72 0 0 0 0 0 0 0 0 0 0 0 0 0 0 0 0 0 0 0
46 38 159 3 107 74 0 36 268 54 120 137 175 529 426 914 1511 1194 317 368 362 430 285 213 12 0 0 0 0 0 0 0 0 0 0 0 0 0 0 0 0 0 0 0
101 117 128 171 39 234 195 250 185 246 132 80 41 22 44 1505 1338 1060 825 604 379 302 262 111 0 0 0 0 0 0 0 0 0 0 0 0 0 0 0 0 0 0 0 0
8 99 113 238 103 215 68 96 306 199 58 7 9 341 1337 1399 1138 911 771 501 356 372 207 0 0 0 0 0 0 0 0 0 0 0 0 0 0 0 0 0 0 0 0 0
2 0 57 8 83 157 219 160 141 200 562 573 1149 1172 1185 1275 1133 746 563 545 366 255 88 0 0 0 0 0 0 0 0 0 0 0 0 0 0 0 0 0 0 0 0 0
0 19 14 0 1 138 235 326 152 86 514 1401 1400 1219 1244 1122 1018 928 803 547 356 217 47 0 0 0 0 0 0 0 0 0 0 0 0 0 0 0 0 0 0 0 0 0
0 9 6 0 0 87 21 102 368 108 741 1375 1383 1300 1135 896 731 590 451 176 68 5 0 0 0 0 0 0 0 0 0 0 0 0 0 0 0 0 0 0 0 0 0 0
0 0 0 0 0 0 0 276 494 401 889 1128 1018 901 716 605 446 321 255 184 90 29 0 0 0 0 0 0 0 0 0 0 0 0 0 0 0 0 0 0 0 0 0 0
11 0 0 0 16 6 67 304 430 470 710 726 654 534 450 382 283 243 129 45 7 0 0 0 0 0 0 0 0 0 0 0 0 0 0 0 0 0 0 0 0 0 0 0
120 57 22 0 17 54 223 150 227 204 244 267 257 250 173 89 173 165 66 5 5 0 0 0 0 0 0 0 0 0 0 0 0 0 0 0 0 0 0 0 0 0 0 0
212 121 154 182 193 288 256 180 132 93 111 99 168 196 119 53 18 54 39 21 13 0 0 0 0 0 0 0 0 0 0 0 0 0 0 0 0 0 0 0 0 0 0 0
23 184 155 124 194 228 228 187 129 60 28 121 233 191 105 46 5 7 4 0 0 0 0 0 0 0 0 0 0 0 0 0 0 0 0 0 0 0 0 0 0 0 0 0
245 187 141 135 203 222 240 248 158 114 94 54 24 1 0 3 0 0 0 1 1 0 0 1 0 0 0 0 0 0 0 0 0 0 0 0 0 0 0 0 0 0 0 0
67 30 51 43 64 81 158 176 150 131 103 49 2 0 29 54 74 60 24 9 38 22 2 0 8 4 10 10 2 0 0 0 0 0 0 0 0 0 0 0 0 0 0 0
0 0 0 0 10 8 49 59 58 15 3 0 0 0 67 64 21 7 9 11 0 0 0 1 30 17 19 41 66 23 2 0 0 0 0 0 0 0 0 0 1 0 0 0
0 0 0 0 0 0 0 0 0 0 4 30 46 33 0 0 0 0 0 0 0 0 0 0 0 0 4 0 13 45 23 14 9 0 1 2 4 3 0 1 4 6 17 7
0 0 0 0 0 0 0 0 0 0 0 0 0 0 0 0 0 0 0 0 0 0 0 0 0 0 0 5 1 0 12 7 7 20 14 1 2 0 0 0 0 0 6 1
0 0 0 0 0 0 0 0 0 0 0 0 0 0 0 0 0 0 0 0 0 0 0 0 0 0 0 0 0 1 1 0 0 0 5 0 1 0 0 0 0 0 0 0
0 0 0 0 0 0 0 0 0 0 0 0 0 0 0 0 0 0 0 0 0 0 0 0 0 0 0 0 0 0 2 2 3 1 2 3 3 5 7 0 12 7 0 2
0 0 0 0 0 0 0 0 0 0 0 0 0 0 0 0 0 0 0 0 0 0 0 0 0 0 0 0 0 1 0 0 2 0 0 0 0 0 1 3 13 20 11 12
0 0 0 0 0 0 0 0 0 0 0 0 0 0 0 0 0 0 0 0 0 0 0 0 0 0 0 0 0 0 0 0 0 0 0 0 0 1 2 0 2 1 2 3
0 0 0 0 0 0 0 0 0 0 0 0 0 0 0 0 0 0 0 0 0 0 0 0 0 0 0 0 0 0 0 0 0 1 1 0 0 2 3 4 4 3 4 2
CIN
-0 -0 -0 -0 -5 -15 -0 -0 -0 -8 -61 -109 -205 -240 -302 -446 -463 -302 -300 -390 -356 -41 -0 -0 -0 -0 -0 -0 -0 -0 -0 -0 -0 -0 -0 -0 -0 -0 -0 -0 -0 -0 -0 -0
-0 -0 -0 -0 -0 -0 -54 -69 -0 -0 -86 -178 -262 -416 -415 -421 -349 -291 -293 -471 -555 -0 -0 -0 -0 -0 -0 -0 -0 -0 -0 -0 -0 -0 -0 -0 -0 -0 -0 -0 -0 -0 -0 -0
-0 -0 -0 -0 -2 -52 -95 -144 -99 -68 -119 -222 -210 -262 -249 -281 -258 -187 -264 -403 -430 -0 -0 -0 -0 -0 -0 -0 -0 -0 -0 -0 -0 -0 -0 -0 -0 -0 -0 -0 -0 -2 -4 -4
-0 -0 -0 -69 -199 -141 -103 -166 -220 -137 -220 -153 -139 -160 -285 -279 -151 -151 -228 -325 -473 -499 -561 -0 -0 -0 -0 -0 -0 -0 -0 -0 -0 -0 -0 -0 -0 -0 -0 -0 -0 -0 -8 -10
-0 -0 -0 -97 -180 -189 -158 -135 -268 -175 -217 -175 -164 -257 -224 -336 -213 -211 -230 -377 -366 -479 -485 -459 -414 -0 -0 -0 -0 -0 -0 -0 -0 -0 -0 -0 -0 -0 -0 -0 -0 -0 -0 -0
-87 -3 -5 -173 -297 -309 -261 -87 -275 -270 -226 -209 -245 -157 -155 -229 -172 -160 -274 -285 -328 -433 -422 -364 -391 -0 -0 -0 -0 -0 -0 -0 -0 -0 -0 -0 -0 -0 -0 -0 -0 -0 -0 -0
-153 -101 -114 -219 -263 -287 -31 -137 -219 -272 -112 -93 -107 -117 -251 -296 -161 -172 -202 -223 -350 -369 -336 -335 -441 -0 -0 -0 -0 -0 -0 -0 -0 -0 -0 -0 -0 -0 -0 -0 -0 -0 -0 -0
-227 -139 -63 -245 -184 -111 -249 -296 -243 -240 -292 -204 -248 -224 -219 -206 -190 -287 -227 -278 -342 -337 -338 -374 -0 -0 -0 -0 -0 -0 -0 -0 -0 -0 -0 -0 -0 -0 -0 -0 -0 -0 -0 -0
-270 -226 -262 -302 -300 -286 -306 -346 -184 -172 -201 -283 -315 -248 -225 -233 -225 -274 -210 -261 -314 -260 -320 -0 -0 -0 -0 -0 -0 -0 -0 -0 -0 -0 -0 -0 -0 -0 -0 -0 -0 -0 -0 -0
-193 -0 -203 -377 -373 -326 -398 -194 -216 -233 -147 -163 -137 -195 -271 -229 -222 -256 -286 -235 -281 -291 -343 -0 -0 -0 -0 -0 -0 -0 -0 -0 -0 -0 -0 -0 -0 -0 -0 -0 -0 -0 -0 -0
-5 -122 -145 -16 -24 -192 -197 -174 -153 -177 -92 -74 -108 -135 -135 -174 -193 -200 -198 -221 -233 -214 -235 -0 -0 -0 -0 -0 -0 -0 -0 -0 -0 -0 -0 -0 -0 -0 -0 -0 -0 -0 -0 -0
-2 -79 -89 -0 -0 -119 -58 -35 -92 -159 -117 -114 -106 -114 -132 -134 -148 -163 -158 -210 -242 -86 -0 -0 -0 -0 -0 -0 -0 -0 -0 -0 -0 -0 -0 -0 -0 -0 -0 -0 -0 -0 -0 -0
-0 -6 -0 -0 -0 -0 -3 -60 -120 -144 -136 -86 -135 -117 -113 -114 -136 -150 -180 -221 -231 -244 -0 -0 -0 -0 -0 -0 -0 -0 -0 -0 -0 -0 -0 -0 -0 -0 -0 -0 -0 -0 -0 -0
-243 -0 -0 -0 -44 -171 -189 -162 -152 -137 -111 -144 -157 -158 -121 -141 -182 -181 -182 -208 -175 -0 -0 -0 -0 -0 -0 -0 -0 -0 -0 -0 -0 -0 -0 -0 -0 -0 -0 -0 -0 -0 -0 -0
-191 -215 -150 -0 -71 -105 -170 -127 -85 -106 -133 -133 -115 -92 -91 -117 -101 -104 -118 -148 -118 -0 -0 -0 -0 -0 -0 -0 -0 -0 -0 -0 -0 -0 -0 -0 -0 -0 -0 -0 -0 -0 -0 -0
-108 -86 -73 -46 -59 -69 -73 -121 -121 -163 -146 -160 -145 -105 -100 -135 -126 -102 -141 -121 -114 -0 -0 -0 -0 -0 -0 -0 -0 -0 -0 -0 -0 -0 -0 -0 -0 -0 -0 -0 -0 -0 -0 -0
-38 -27 -52 -82 -90 -95 -107 -136 -151 -192 -217 -166 -128 -140 -141 -95 -72 -129 -137 -0 -0 -0 -0 -0 -0 -0 -0 -0 -0 -0 -0 -0 -0 -0 -0 -0 -0 -0 -0 -0 -0 -0 -0 -0
-240 -255 -227 -191 -157 -158 -197 -188 -186 -179 -169 -178 -185 -55 -0 -84 -0 -0 -0 -59 -23 -60 -0 -42 -0 -0 -0 -0 -0 -0 -0 -0 -0 -0 -0 -0 -0 -0 -0 -0 -0 -0 -0 -0
-216 -97 -239 -240 -256 -219 -192 -169 -150 -142 -132 -114 -40 -0 -127 -122 -100 -69 -49 -53 -44 -33 -54 -21 -58 -46 -70 -74 -25 -0 -0 -0 -0 -0 -0 -0 -0 -0 -0 -0 -0 -0 -0 -0
-0 -0 -0 -0 -237 -210 -145 -162 -172 -173 -28 -0 -0 -0 -47 -51 -61 -66 -77 -53 -0 -0 -0 -19 -68 -55 -64 -58 -49 -48 -49 -0 -0 -16 -0 -0 -0 -0 -0 -0 -26 -0 -0 -0
-0 -0 -0 -0 -0 -0 -0 -0 -0 -0 -110 -95 -49 -36 -12 -0 -0 -0 -0 -0 -0 -0 -0 -0 -0 -0 -182 -14 -71 -61 -64 -52 -54 -0 -8 -28 -51 -84 -9 -30 -47 -43 -42 -53
-0 -0 -0 -0 -0 -0 -0 -0 -0 -0 -0 -0 -0 -0 -0 -0 -0 -0 -0 -0 -0 -0 -0 -0 -0 -0 -0 -147 -62 -7 -97 -75 -46 -44 -43 -38 -30 -0 -0 -0 -0 -0 -26 -59
-0 -0 -0 -0 -0 -0 -0 -0 -0 -0 -0 -0 -0 -0 -0 -0 -0 -0 -0 -0 -0 -0 -0 -0 -0 -0 -0 -0 -25 -48 -43 -0 -0 -27 -97 -18 -52 -46 -0 -0 -0 -0 -0 -0
-0 -0 -0 -0 -0 -0 -0 -0 -0 -0 -0 -0 -0 -0 -0 -0 -0 -0 -0 -0 -0 -0 -0 -0 -0 -0 -0 -0 -0 -0 -0 -0 -0 -0 -0 -4 -30 -43 -45 -3 -40 -64 -0 -111
-0 -0 -0 -0 -0 -0 -0 -0 -0 -0 -0 -0 -0 -0 -0 -0 -0 -0 -0 -0 -0 -0 -0 -0 -0 -0 -0 -0 -0 -0 -0 -0 -0 -0 -0 -0 -0 -0 -0 -13 -23 -37 -22 -40
-0 -0 -0 -0 -0 -0 -0 -0 -0 -0 -0 -0 -0 -0 -0 -0 -0 -0 -0 -0 -0 -0 -0 -0 -0 -0 -0 -0 -0 -0 -0 -0 -0 -0 -0 -0 -0 -0 -0 -0 -0 -0 -0 -0
-0 -0 -0 -0 -0 -0 -0 -0 -0 -0 -0 -0 -0 -0 -0 -0 -0 -0 -0 -0 -0 -0 -0 -0 -0 -0 -0 -0 -0 -0 -0 -0 -0 -0 -0 -0 -0 -0 -0 -0 -0 -0 -0 -0
Wind_Speed
31 29 27 30 31 31 30 30 24 19 8 7 6 6 4 11 6 8 9 9 10 13 13 10 9 8 7 8 10 12 13 16 18 19 18 18 19 19 18 18 18 20 20 21
34 32 29 32 31 27 26 24 30 18 13 5 2 3 3 6 2 5 11 13 11 12 12 11 10 7 6 7 9 11 13 15 17 18 19 18 18 18 18 18 19 20 20 20
36 31 29 32 27 24 19 21 19 9 5 4 3 1 4 9 14 11 13 14 13 11 13 12 10 7 6 5 8 10 12 15 17 18 19 18 18 18 18 19 20 21 22 18
32 26 33 22 20 17 11 17 20 8 7 8 4 6 7 10 7 10 11 11 12 10 11 11 8 6 5 4 5 8 10 13 16 18 18 18 18 18 20 20 22 21 21 20
26 26 21 17 18 19 19 12 14 2 2 4 5 3 1 5 6 7 11 12 11 11 11 9 7 5 4 2 4 7 9 11 15 17 17 18 18 19 20 20 21 19 20 21
21 23 25 21 21 21 16 12 9 6 1 1 1 2 2 6 8 6 14 12 8 7 6 5 4 4 2 2 4 7 9 12 15 18 18 18 18 20 19 20 19 20 22 21
19 19 17 19 22 20 20 16 16 11 6 6 9 6 10 6 1 5 5 12 7 3 3 4 3 2 2 5 8 8 9 13 17 18 18 18 18 17 18 19 20 23 24 20
22 22 23 22 21 18 21 20 16 13 11 12 14 13 19 9 1 3 2 5 2 2 1 2 1 5 8 9 10 8 11 15 17 17 17 15 18 17 16 18 20 21 21 19
21 25 25 23 23 21 16 17 11 7 6 8 10 13 11 7 5 6 5 3 2 3 2 3 6 10 11 11 9 11 14 17 16 15 15 16 17 16 18 19 18 19 21 19
21 24 24 24 24 23 21 20 18 14 10 8 8 9 8 10 10 8 6 4 4 4 5 6 5 8 9 8 10 14 17 19 17 15 13 15 14 16 19 18 15 18 21 22
20 25 25 24 25 24 19 16 15 21 28 3 11 12 11 10 10 8 7 6 5 4 5 6 8 10 8 9 13 17 18 18 17 17 16 16 14 14 15 15 14 17 18 18
15 6 12 19 22 10 18 19 16 19 21 8 8 9 9 10 9 8 7 7 6 6 7 7 9 11 11 12 13 16 17 18 19 23 18 19 18 17 15 14 15 14 16 15
14 9 8 8 12 14 4 15 23 22 10 3 7 8 8 8 9 9 8 7 7 7 8 9 11 14 14 12 12 13 15 17 18 20 20 20 19 18 16 17 17 16 15 14
11 11 8 11 10 11 10 11 10 6 6 5 7 8 8 9 9 10 9 8 8 9 9 10 12 14 11 11 12 13 15 16 18 20 21 22 21 22 16 18 22 22 16 10
9 7 10 10 9 7 13 13 7 6 5 6 7 8 8 10 11 10 9 10 10 10 8 10 10 12 11 11 11 12 14 16 17 18 19 21 21 20 19 22 21 20 21 18
12 8 10 10 10 7 5 6 3 4 4 5 7 8 8 11 11 9 8 7 9 8 8 9 10 11 11 12 12 13 14 14 16 17 18 21 22 23 24 22 21 24 21 18
11 13 11 10 9 8 9 4 5 5 6 7 10 9 9 10 9 10 8 7 8 5 8 10 13 13 12 11 11 12 14 15 16 18 19 22 25 23 23 23 22 24 21 16
12 13 9 7 8 9 10 7 6 6 6 7 8 11 13 14 9 12 9 10 8 9 13 13 12 11 14 15 13 14 15 16 17 18 20 21 23 23 22 23 23 22 23 20
13 12 11 10 11 11 10 10 10 10 9 8 10 11 13 18 18 17 17 23 19 22 19 18 17 15 15 15 14 13 15 15 16 20 21 23 25 24 22 22 23 23 21 23
13 13 12 12 13 13 13 13 12 12 12 13 14 16 20 22 21 20 19 20 22 27 30 25 23 22 23 23 19 18 17 16 17 18 19 21 24 26 26 26 25 24 23 24
11 12 13 13 14 15 16 15 16 17 18 17 17 17 18 20 20 19 21 23 28 29 28 28 26 29 29 27 27 24 18 18 20 21 23 25 26 28 30 29 29 29 27 25
12 14 14 14 15 16 17 17 17 18 19 19 19 19 21 22 22 21 24 26 28 29 27 29 30 32 31 29 26 29 26 25 25 25 26 28 28 29 30 30 28 29 30 29
14 14 15 14 14 15 17 19 19 19 20 21 22 23 22 23 24 24 26 30 30 30 29 32 34 34 32 30 30 32 34 33 34 33 32 33 32 34 36 32 30 30 31 30
14 15 15 16 16 17 17 18 20 21 21 21 23 24 24 24 26 28 28 31 33 32 32 34 35 35 34 33 34 33 32 33 34 33 34 33 34 35 35 34 32 32 35 31
15 15 15 16 17 17 17 19 21 22 22 22 24 25 26 27 27 29 30 31 33 33 33 35 36 36 35 34 33 32 34 34 35 36 37 36 37 37 38 36 36 38 38 37
16 17 18 19 19 18 18 21 22 23 22 23 25 26 27 28 28 29 30 31 32 33 34 34 34 34 34 33 33 35 36 37 38 38 38 38 39 39 41 43 43 44 43 42
17 19 20 20 21 20 20 21 22 23 23 23 24 27 29 29 30 30 31 31 32 33 33 33 33 33 34 34 34 35 36 36 38 38 38 39 40 40 42 43 45 45 44 43
Wind_Direction
266 267 275 272 265 267 266 275 283 291 276 211 202 171 160 149 87 99 127 124 123 124 121 111 114 100 73 46 26 18 20 16 15 11 7 358 352 349 348 350 349 344 344 344
268 268 276 269 278 275 280 284 284 290 276 263 188 31 130 129 96 116 139 141 132 130 126 129 135 116 84 52 33 23 16 11 11 12 6 1 357 354 350 346 347 347 351 350
267 268 268 267 282 283 293 293 303 296 281 167 259 305 143 129 144 140 140 143 144 138 145 144 145 132 113 69 46 30 16 9 5 5 1 0 354 350 347 346 343 344 343 354
271 269 255 279 300 305 301 302 291 303 140 140 119 120 116 143 127 137 147 142 143 142 150 150 146 139 120 86 51 33 27 17 7 360 356 352 349 347 343 346 339 341 343 350
273 267 270 283 292 294 289 309 295 316 229 215 113 32 338 183 188 194 175 150 145 145 149 149 146 137 133 86 14 7 11 12 8 2 358 349 344 342 341 345 344 345 346 347
282 268 263 277 287 292 290 296 303 314 6 56 104 199 292 300 229 217 194 156 135 140 143 149 149 138 138 336 345 347 359 359 357 354 352 346 344 342 347 347 350 346 341 345
280 276 276 295 292 290 280 285 295 302 291 277 295 333 3 335 241 211 259 121 111 132 154 162 141 130 335 335 328 338 351 349 347 345 344 341 340 345 344 346 346 340 341 352
275 275 274 290 297 294 295 296 289 297 297 306 313 302 313 337 62 82 25 28 55 99 168 164 322 321 323 323 329 340 342 338 341 342 344 344 339 343 344 341 341 342 351 2
276 271 293 291 287 293 311 301 303 320 328 346 349 335 353 27 359 50 77 60 61 117 96 335 320 320 323 323 327 333 332 331 335 336 339 341 340 340 338 337 348 347 349 356
281 286 278 288 293 293 298 301 287 293 302 335 357 10 19 65 67 72 59 46 17 356 340 333 337 333 333 334 330 329 327 325 329 334 336 336 341 337 333 337 344 345 347 349
287 277 274 295 291 290 301 303 282 282 235 47 77 54 53 50 46 38 33 26 45 35 9 350 353 347 348 341 332 329 326 324 328 328 329 332 335 334 336 340 346 343 346 353
313 313 300 290 301 315 307 278 281 269 251 74 51 38 30 26 29 33 30 22 12 5 3 355 347 344 345 342 340 335 329 324 323 321 325 325 329 330 334 337 339 340 344 352
357 41 354 350 35 80 105 171 188 183 149 355 26 41 41 32 16 19 21 15 6 357 353 349 339 335 340 343 344 342 336 330 324 323 324 326 330 330 333 337 337 338 340 345
333 69 21 106 108 129 131 153 136 103 87 79 47 35 27 18 13 7 12 16 7 359 355 353 343 338 350 352 349 344 340 335 329 322 321 322 321 323 329 333 329 327 337 341
43 84 131 354 132 140 142 112 80 67 56 34 25 25 20 9 1 5 7 6 0 355 4 1 358 355 5 4 356 348 342 338 335 330 325 326 323 325 325 325 329 332 333 339
330 29 37 11 13 44 18 347 16 29 40 41 36 25 24 12 15 37 44 33 14 15 19 15 6 1 357 353 348 342 340 340 338 333 327 322 320 320 321 320 322 324 326 329
335 329 331 343 0 349 349 42 59 51 18 13 357 7 14 15 9 20 29 31 8 12 3 357 348 350 348 346 347 342 337 336 335 331 326 322 318 318 321 322 322 323 329 332
345 344 346 14 41 39 28 40 45 46 23 17 6 359 354 349 349 342 356 342 354 348 341 344 341 343 334 330 330 328 327 329 330 328 325 322 320 319 318 318 320 322 324 328
13 27 16 14 22 31 34 39 38 32 28 21 2 0 3 353 351 345 332 323 335 317 328 330 329 323 321 321 317 316 318 317 320 319 320 318 318 317 317 316 316 317 318 319
16 25 24 21 18 18 18 19 19 12 8 1 349 343 337 336 339 346 351 347 339 326 321 331 333 332 329 324 322 315 313 315 314 320 313 316 314 315 315 315 315 315 312 314
350 4 6 15 15 12 10 9 6 360 357 355 354 353 356 354 356 356 346 341 332 329 340 343 338 329 328 326 325 326 328 326 321 316 317 314 314 310 311 310 309 311 312 311
356 357 355 357 1 3 6 8 8 4 1 1 0 355 350 348 345 349 347 339 335 336 340 341 338 332 331 331 329 321 325 323 323 319 317 316 314 312 312 312 311 309 309 308
352 347 360 9 12 11 6 3 4 2 358 353 351 347 347 347 345 343 337 337 336 335 337 335 331 329 329 329 325 323 321 322 320 318 315 315 315 312 309 313 312 311 309 312
12 14 18 17 14 6 8 11 10 3 0 2 359 354 347 341 341 340 337 333 333 334 335 334 332 330 329 327 325 324 326 326 324 324 322 318 315 314 314 315 309 309 309 314
31 23 14 10 13 19 13 4 358 355 355 356 353 353 350 347 343 338 337 336 335 333 332 330 329 328 329 328 328 328 326 327 324 322 320 319 317 316 312 307 311 311 310 312
30 21 14 13 12 9 5 358 356 354 356 354 352 352 350 348 347 346 344 342 340 338 337 336 336 335 333 332 330 328 327 325 322 321 318 317 314 313 310 307 306 307 306 305
16 11 7 9 8 9 9 5 3 359 359 359 357 355 353 351 350 349 347 347 348 347 345 343 341 340 339 337 336 334 332 330 327 324 322 319 317 315 313 309 307 304 303 301